Weather History for Winter Haven, FL

Change the Weather History Date:

Wednesday, February 20, 2013

  Actual Average Record
Temperature  
Mean Temperature 68 °F -  
Max Temperature 77 °F 77 °F 88 °F (1949)
Min Temperature 59 °F 51 °F 34 °F (1969)
Cooling Degree Days 3    
Growing Degree Days 18 (Base 50)    
Moisture  
Dew Point 58 °F    
Average Humidity 84    
Maximum Humidity 100    
Minimum Humidity 52    
Precipitation  
Precipitation 0.00 in - - ()
Sea Level Pressure  
Sea Level Pressure 30.11 in    
Wind  
Wind Speed 3 mph (NNE)    
Max Wind Speed 10 mph    
Max Gust Speed -    
Visibility 6 miles    
Events      
Averages and records for this station are not official NWS values.
T = Trace of Precipitation, MM = Missing Value Source: NWS Daily Summary

Daily Weather History Graph

Daily Weather History Graph

Search for Another Location

Airport:

Trip Planner

Search our weather history database for the weather conditions in past years. The results will help you decide how hot, cold, wet, or windy it might be!

Date:

Astronomy

Feb. 20, 2013 Rise Set
Actual Time 7:00 AM EST 6:21 PM EST
Civil Twilight 6:36 AM EST 6:45 PM EST
Nautical Twilight 6:08 AM EST 7:12 PM EST
Astronomical Twilight 5:41 AM EST 7:40 PM EST
Moon 1:56 PM EST (2/20) 3:04 AM EST (2/20)
Length of Visible Light 12h 09m
Length of Day
11h 21m
Waxing Gibbous, 76% of the Moon is Illuminated
Feb 20
Waxing Gibbous
Feb 25
Full
Mar 4
Last Quarter
Mar 11
New
Mar 19
First Quarter

Hourly Weather History & Observations

Time (EST) Temp. Dew Point Humidity Pressure Visibility Wind Dir Wind Speed Gust Speed Precip Events Conditions
12:53 AM 61.0 °F 57.9 °F 90% 30.11 in 9.0 mi Calm Calm - N/A   Clear
1:53 AM 61.0 °F 57.9 °F 90% 30.11 in 8.0 mi Calm Calm - N/A   Clear
2:53 AM 60.1 °F 57.9 °F 93% 30.10 in 7.0 mi Calm Calm - N/A   Clear
3:53 AM 60.1 °F 59.0 °F 96% 30.09 in 6.0 mi Calm Calm - N/A   Partly Cloudy
4:25 AM 60.1 °F 59.0 °F 96% 30.10 in 3.0 mi North 5.8 mph - N/A   Scattered Clouds
4:40 AM 61.0 °F 59.0 °F 93% 30.10 in 4.0 mi NNW 5.8 mph - N/A   Mostly Cloudy
4:53 AM 60.1 °F 60.1 °F 100% 30.10 in 4.0 mi NNW 4.6 mph - N/A   Overcast
5:15 AM 61.0 °F 60.1 °F 97% 30.11 in 2.0 mi WNW 4.6 mph - N/A   Overcast
5:29 AM 61.0 °F 61.0 °F 100% 30.11 in 1.8 mi Calm Calm - N/A   Overcast
5:36 AM 61.0 °F 61.0 °F 100% 30.11 in 1.5 mi Calm Calm - N/A   Overcast
5:53 AM 61.0 °F 60.1 °F 97% 30.11 in 1.0 mi Calm Calm - N/A   Overcast
6:26 AM 60.1 °F 59.0 °F 96% 30.13 in 1.8 mi North 5.8 mph - N/A   Mostly Cloudy
6:31 AM 60.1 °F 59.0 °F 96% 30.13 in 2.5 mi North 4.6 mph - N/A   Overcast
6:51 AM 60.8 °F 59.0 °F 94% 30.13 in 2.0 mi Calm Calm - N/A   Mostly Cloudy
6:53 AM 59.0 °F 59.0 °F 100% 30.12 in 2.0 mi Calm Calm - N/A   Mostly Cloudy
6:59 AM 60.1 °F 59.0 °F 96% 30.13 in 2.5 mi North 3.5 mph - N/A   Mostly Cloudy
7:05 AM 60.1 °F 59.0 °F 96% 30.13 in 3.0 mi North 4.6 mph - N/A   Scattered Clouds
7:12 AM 60.1 °F 59.0 °F 96% 30.13 in 3.0 mi North 3.5 mph - N/A   Mostly Cloudy
7:32 AM 60.1 °F 59.0 °F 96% 30.14 in 2.5 mi Calm Calm - N/A   Mostly Cloudy
7:45 AM 61.0 °F 60.1 °F 97% 30.14 in 3.0 mi North 4.6 mph - N/A   Overcast
7:53 AM 61.0 °F 59.0 °F 93% 30.14 in 4.0 mi North 5.8 mph - N/A   Overcast
8:18 AM 61.0 °F 59.0 °F 93% 30.15 in 5.0 mi NNE 8.1 mph - N/A   Overcast
8:31 AM 62.1 °F 59.0 °F 90% 30.16 in 5.0 mi North 8.1 mph - N/A   Overcast
8:48 AM 62.6 °F 60.8 °F 94% 30.16 in 7.0 mi NNE 5.8 mph - N/A   Overcast
8:53 AM 62.1 °F 59.0 °F 90% 30.16 in 7.0 mi NE 6.9 mph - N/A   Overcast
9:38 AM 64.9 °F 57.9 °F 78% 30.16 in 10.0 mi NE 5.8 mph - N/A   Overcast
9:53 AM 64.9 °F 57.9 °F 78% 30.16 in 10.0 mi ENE 6.9 mph - N/A   Overcast
10:53 AM 69.1 °F 59.0 °F 70% 30.15 in 10.0 mi East 4.6 mph - N/A   Overcast
11:53 AM 72.0 °F 59.0 °F 64% 30.13 in 10.0 mi Variable 3.5 mph - N/A   Clear
12:53 PM 73.9 °F 59.0 °F 59% 30.09 in 10.0 mi Variable 3.5 mph - N/A   Clear
1:53 PM 75.9 °F 57.9 °F 54% 30.06 in 10.0 mi Calm Calm - N/A   Clear
2:53 PM 75.0 °F 57.9 °F 55% 30.05 in 10.0 mi Calm Calm - N/A   Scattered Clouds
3:53 PM 77.0 °F 57.9 °F 52% 30.03 in 10.0 mi North 4.6 mph - N/A   Mostly Cloudy
4:53 PM 75.9 °F 57.9 °F 54% 30.05 in 10.0 mi North 3.5 mph - N/A   Mostly Cloudy
5:53 PM 73.9 °F 59.0 °F 59% 30.07 in 10.0 mi NW 3.5 mph - N/A   Overcast
6:53 PM 71.1 °F 57.9 °F 63% 30.07 in 10.0 mi NE 3.5 mph - N/A   Partly Cloudy
7:53 PM 68.0 °F 57.0 °F 68% 30.10 in 7.0 mi ENE 8.1 mph - N/A   Mostly Cloudy
8:53 PM 64.9 °F 55.9 °F 73% 30.12 in 10.0 mi ENE 10.4 mph - N/A   Mostly Cloudy
9:53 PM 62.1 °F 54.0 °F 75% 30.13 in 10.0 mi East 6.9 mph - N/A   Clear
10:53 PM 60.1 °F 54.0 °F 80% 30.12 in 10.0 mi East 6.9 mph - N/A   Clear
11:53 PM 60.1 °F 54.0 °F 80% 30.10 in 10.0 mi East 4.6 mph - N/A   Clear